San Antonio Stinson, TX

9:08 AM CDT on May 23, 2017 (GMT -0500)
Stinson Municipal

Weather History for KSSF - February, 2013

Change the Weather History Date:

Sunday, February 3, 2013

  Actual Average Record
Temperature  
Mean Temperature 63 °F -  
Max Temperature 71 °F 61 °F 82 °F (2003)
Min Temperature 55 °F 43 °F 23 °F (2011)
Degree Days  
Heating Degree Days 2    
Growing Degree Days 13 (Base 50)    
Moisture  
Dew Point 45 °F    
Average Humidity 53    
Maximum Humidity 83    
Minimum Humidity 36    
Precipitation  
Precipitation 0.00 in - - ()
Sea Level Pressure  
Sea Level Pressure 30.19 in    
Wind  
Wind Speed 8 mph (East)    
Max Wind Speed 12 mph    
Max Gust Speed 16 mph    
Visibility 10 miles    
Events      
Averages and records for this station are not official NWS values.
T = Trace of Precipitation, MM = Missing Value Source: NWS Daily Summary

Daily Weather History Graph

Daily Weather History Graph

Search for Another Location

Airport or City:

Trip Planner

Search our weather history database for the weather conditions in past years. The results will help you decide how hot, cold, wet, or windy it might be!

Date:

Astronomy

Feb. 03, 2013 Rise Set
Actual Time 7:21 AM CST 6:14 PM CST
Civil Twilight 6:56 AM CST 6:38 PM CST
Nautical Twilight 6:28 AM CST 7:07 PM CST
Astronomical Twilight 6:00 AM CST 7:35 PM CST
Moon 12:49 AM CST (2/3) 11:55 AM CST (2/3)
Length of Visible Light 11h 41m
Length of Day
10h 52m
Waning Gibbous, 48% of the Moon is Illuminated
Feb 3
Waning Gibbous
Feb 10
New
Feb 17
First Quarter
Feb 25
Full
Mar 4
Last Quarter

Hourly Weather History & Observations

Time (CST) Temp. Dew Point Humidity Pressure Visibility Wind Dir Wind Speed Gust Speed Precip Events Conditions
12:53 AM 60.1 °F 46.0 °F 60% 30.27 in 10.0 mi NE 6.9 mph - N/A   Mostly Cloudy
1:53 AM 59.0 °F 44.1 °F 58% 30.27 in 10.0 mi ENE 8.1 mph - N/A   Partly Cloudy
2:53 AM 57.9 °F 42.1 °F 56% 30.27 in 10.0 mi NE 6.9 mph - N/A   Mostly Cloudy
3:53 AM 55.9 °F 41.0 °F 57% 30.27 in 10.0 mi NE 6.9 mph - N/A   Mostly Cloudy
4:53 AM 55.9 °F 39.9 °F 55% 30.27 in 10.0 mi NNE 9.2 mph - N/A   Overcast
6:53 AM 57.0 °F 37.9 °F 49% 30.29 in 10.0 mi ENE 3.5 mph - N/A   Overcast
7:53 AM 55.9 °F 37.9 °F 51% 30.30 in 10.0 mi ENE 6.9 mph - N/A   Mostly Cloudy
8:53 AM 57.0 °F 37.9 °F 49% 30.32 in 10.0 mi East 6.9 mph - N/A   Partly Cloudy
9:53 AM 62.1 °F 37.0 °F 39% 30.32 in 10.0 mi East 9.2 mph - N/A   Mostly Cloudy
10:53 AM 64.0 °F 37.0 °F 37% 30.31 in 10.0 mi ENE 9.2 mph - N/A   Partly Cloudy
11:53 AM 68.0 °F 39.9 °F 36% 30.28 in 10.0 mi ESE 10.4 mph - N/A   Partly Cloudy
12:53 PM 69.1 °F 43.0 °F 39% 30.23 in 10.0 mi East 8.1 mph - 0.00 in   Mostly Cloudy
1:53 PM 70.0 °F 45.0 °F 41% 30.17 in 10.0 mi ESE 10.4 mph - N/A   Clear
2:53 PM 70.0 °F 48.0 °F 46% 30.14 in 10.0 mi SSE 8.1 mph - N/A   Partly Cloudy
3:53 PM 71.1 °F 46.9 °F 42% 30.12 in 10.0 mi SE 11.5 mph - N/A   Clear
4:53 PM 70.0 °F 48.0 °F 46% 30.10 in 10.0 mi ESE 8.1 mph - N/A   Clear
5:53 PM 69.1 °F 48.0 °F 47% 30.08 in 10.0 mi ESE 8.1 mph - N/A   Partly Cloudy
6:53 PM 66.9 °F 48.9 °F 52% 30.07 in 10.0 mi ESE 4.6 mph - N/A   Overcast
7:53 PM 64.9 °F 48.9 °F 56% 30.06 in 10.0 mi SE 6.9 mph - N/A   Mostly Cloudy
8:53 PM 64.0 °F 53.1 °F 67% 30.06 in 10.0 mi SE 11.5 mph - N/A   Clear
9:53 PM 63.0 °F 54.0 °F 72% 30.04 in 10.0 mi SE 11.5 mph - N/A   Clear
10:53 PM 61.0 °F 52.0 °F 72% 30.02 in 10.0 mi SSE 9.2 mph - N/A   Clear
11:53 PM 60.1 °F 55.0 °F 83% 30.02 in 10.0 mi SSE 11.5 mph 16.1 mph N/A   Mostly Cloudy